Columbus, OH

9:24 PM EST on January 17, 2017 (GMT -0500)
Ohio State University

Weather History for KOSU - August, 2014

Change the Weather History Date:

Wednesday, August 20, 2014

  Actual Average Record
Temperature  
Mean Temperature 78 °F -  
Max Temperature 87 °F 80 °F 93 °F (2005)
Min Temperature 68 °F 60 °F 48 °F (1998)
Cooling Degree Days 12    
Growing Degree Days 28 (Base 50)    
Moisture  
Dew Point 66 °F    
Average Humidity 70    
Maximum Humidity 90    
Minimum Humidity 46    
Precipitation  
Precipitation 0.02 in - - ()
Sea Level Pressure  
Sea Level Pressure 29.89 in    
Wind  
Wind Speed 7 mph (SW)    
Max Wind Speed 16 mph    
Max Gust Speed 23 mph    
Visibility 9 miles    
Events Rain , Thunderstorm    
Averages and records for this station are not official NWS values.
T = Trace of Precipitation, MM = Missing Value Source: NWS Daily Summary

Daily Weather History Graph

Daily Weather History Graph

Search for Another Location

Airport or City:

Trip Planner

Search our weather history database for the weather conditions in past years. The results will help you decide how hot, cold, wet, or windy it might be!

Date:

Astronomy

Aug. 20, 2014 Rise Set
Actual Time 6:48 AM EDT 8:22 PM EDT
Civil Twilight 6:19 AM EDT 8:50 PM EDT
Nautical Twilight 5:45 AM EDT 9:25 PM EDT
Astronomical Twilight 5:08 AM EDT 10:01 PM EDT
Moon 2:27 AM EDT (8/20) 5:06 PM EDT (8/20)
Length of Visible Light 14h 30m
Length of Day
13h 33m
Waning Crescent, 21% of the Moon is Illuminated
Aug 20
Waning Crescent
Aug 25
New
Sep 2
First Quarter
Sep 8
Full
Sep 15
Last Quarter

Hourly Weather History & Observations

Time (EDT) Temp. Heat Index Dew Point Humidity Pressure Visibility Wind Dir Wind Speed Gust Speed Precip Events Conditions
12:53 AM 73.0 °F - 66.9 °F 81% 29.82 in 10.0 mi East 3.5 mph - N/A   Partly Cloudy
1:53 AM 73.9 °F - 68.0 °F 82% 29.81 in 9.0 mi SE 4.6 mph - N/A   Scattered Clouds
2:53 AM 73.9 °F - 68.0 °F 82% 29.79 in 8.0 mi SSE 3.5 mph - N/A   Clear
3:53 AM 75.0 °F - 69.1 °F 82% 29.80 in 7.0 mi South 12.7 mph - 0.00 in Rain , Thunderstorm Light Thunderstorms and Rain
4:28 AM 73.0 °F - 69.1 °F 87% 29.86 in 5.0 mi WSW 8.1 mph - 0.01 in Rain , Thunderstorm Rain
4:41 AM 73.0 °F - 69.1 °F 87% 29.85 in 5.0 mi SW 9.2 mph - 0.02 in Rain Light Rain
4:53 AM 72.0 °F - 68.0 °F 87% 29.83 in 6.0 mi SW 10.4 mph - 0.02 in Rain Light Rain
5:53 AM 70.0 °F - 66.0 °F 87% 29.84 in 8.0 mi SSW 4.6 mph - 0.00 in   Clear
6:53 AM 68.0 °F - 64.9 °F 90% 29.85 in 9.0 mi South 5.8 mph - N/A   Scattered Clouds
7:53 AM 68.0 °F - 64.0 °F 87% 29.88 in 10.0 mi SSW 4.6 mph - N/A   Mostly Cloudy
8:53 AM 71.1 °F - 64.0 °F 78% 29.90 in 10.0 mi SSW 5.8 mph - N/A   Partly Cloudy
9:53 AM 73.9 °F - 64.0 °F 71% 29.90 in 10.0 mi SSW 6.9 mph - N/A   Clear
10:53 AM 77.0 °F - 66.0 °F 69% 29.90 in 10.0 mi Variable 4.6 mph - N/A   Clear
11:53 AM 81.0 °F 83.8 °F 68.0 °F 65% 29.91 in 10.0 mi WSW 6.9 mph - N/A   Clear
12:53 PM 82.9 °F 85.8 °F 68.0 °F 60% 29.91 in 10.0 mi SW 11.5 mph - N/A   Mostly Cloudy
1:53 PM 84.9 °F 86.6 °F 64.9 °F 51% 29.91 in 10.0 mi WSW 10.4 mph 21.9 mph N/A   Partly Cloudy
2:53 PM 87.1 °F 88.9 °F 64.9 °F 48% 29.92 in 10.0 mi West 11.5 mph - N/A   Partly Cloudy
3:53 PM 86.0 °F 87.6 °F 64.9 °F 49% 29.91 in 10.0 mi WSW 16.1 mph - N/A   Partly Cloudy
4:53 PM 84.9 °F 85.4 °F 62.1 °F 46% 29.91 in 10.0 mi West 15.0 mph 23.0 mph N/A   Mostly Cloudy
5:53 PM 84.9 °F 86.6 °F 64.9 °F 51% 29.91 in 10.0 mi West 11.5 mph - N/A   Clear
6:53 PM 82.9 °F 84.4 °F 64.0 °F 53% 29.90 in 10.0 mi West 11.5 mph - N/A   Clear
7:53 PM 79.0 °F - 64.0 °F 60% 29.90 in 10.0 mi WNW 5.8 mph - N/A   Clear
8:53 PM 78.1 °F - 64.0 °F 62% 29.93 in 10.0 mi SSW 3.5 mph - N/A   Clear
9:53 PM 75.0 °F - 64.0 °F 69% 29.95 in 10.0 mi SSW 4.6 mph - N/A   Clear
10:53 PM 75.0 °F - 64.9 °F 71% 29.99 in 10.0 mi SW 8.1 mph - N/A   Partly Cloudy
11:53 PM 73.9 °F - 66.0 °F 76% 29.99 in 10.0 mi WSW 8.1 mph - N/A   Clear